Staples, MN

5:22 AM CDT on September 29, 2016 (GMT -0500)
Staples Municipal

Weather History for KSAZ - July, 2013

Change the Weather History Date:

Thursday, July 4, 2013

  Actual Average Record
Temperature  
Mean Temperature 71 °F -  
Max Temperature 87 °F 75 °F 93 °F (2012)
Min Temperature 55 °F 54 °F 44 °F (2008)
Cooling Degree Days 6    
Growing Degree Days 21 (Base 50)    
Moisture  
Dew Point 55 °F    
Average Humidity 57    
Maximum Humidity 94    
Minimum Humidity 31    
Precipitation  
Precipitation 0.00 in - - ()
Sea Level Pressure  
Sea Level Pressure 29.87 in    
Wind  
Wind Speed 5 mph (SSE)    
Max Wind Speed 17 mph    
Max Gust Speed 25 mph    
Visibility 10 miles    
Events      
Averages and records for this station are not official NWS values.
T = Trace of Precipitation, MM = Missing Value Source: NWS Daily Summary

Daily Weather History Graph

Daily Weather History Graph

Search for Another Location

Airport or City:

Trip Planner

Search our weather history database for the weather conditions in past years. The results will help you decide how hot, cold, wet, or windy it might be!

Date:

Astronomy

Jul. 04, 2013 Rise Set
Actual Time 5:32 AM CDT 9:14 PM CDT
Civil Twilight 4:54 AM CDT 9:52 PM CDT
Nautical Twilight 4:02 AM CDT 10:44 PM CDT
Astronomical Twilight 2:51 AM CDT 11:55 PM CDT
Moon 2:55 AM CDT (7/4) 6:15 PM CDT (7/4)
Length of Visible Light 16h 58m
Length of Day
15h 41m
Waning Crescent, 11% of the Moon is Illuminated
Jul 4
Waning Crescent
Jul 8
New
Jul 15
First Quarter
Jul 22
Full
Jul 29
Last Quarter

Hourly Weather History & Observations

Time (CDT) Temp. Heat Index Dew Point Humidity Pressure Visibility Wind Dir Wind Speed Gust Speed Precip Events Conditions
12:14 AM 62.6 °F - 55.4 °F 77% 29.95 in 10.0 mi Calm Calm - N/A   Clear
12:33 AM 62.6 °F - 55.4 °F 77% 29.95 in 10.0 mi Calm Calm - N/A   Clear
12:53 AM 60.8 °F - 55.4 °F 82% 29.94 in 10.0 mi Calm Calm - N/A   Clear
1:14 AM 60.8 °F - 55.4 °F 82% 29.94 in 10.0 mi Calm Calm - N/A   Clear
1:33 AM 60.8 °F - 55.4 °F 82% 29.94 in 10.0 mi Calm Calm - N/A   Clear
1:53 AM 60.8 °F - 55.4 °F 82% 29.94 in 10.0 mi SSE 3.5 mph - N/A   Clear
2:14 AM 60.8 °F - 53.6 °F 77% 29.94 in 10.0 mi SSE 3.5 mph - N/A   Clear
2:33 AM 60.8 °F - 53.6 °F 77% 29.94 in 10.0 mi SSE 3.5 mph - N/A   Clear
2:53 AM 60.8 °F - 55.4 °F 82% 29.93 in 10.0 mi SSE 3.5 mph - N/A   Clear
3:14 AM 59.0 °F - 53.6 °F 82% 29.93 in 10.0 mi Calm Calm - N/A   Clear
3:33 AM 57.2 °F - 53.6 °F 88% 29.93 in 10.0 mi Calm Calm - N/A   Clear
3:53 AM 57.2 °F - 53.6 °F 88% 29.93 in 10.0 mi Calm Calm - N/A   Clear
4:14 AM 57.2 °F - 53.6 °F 88% 29.93 in 10.0 mi Calm Calm - N/A   Clear
4:33 AM 55.4 °F - 53.6 °F 94% 29.93 in 10.0 mi Calm Calm - N/A   Clear
4:53 AM 55.4 °F - 53.6 °F 94% 29.93 in 10.0 mi Calm Calm - N/A   Clear
5:14 AM 55.4 °F - 53.6 °F 94% 29.92 in 10.0 mi SE 3.5 mph - N/A   Scattered Clouds
5:33 AM 55.4 °F - 53.6 °F 94% 29.92 in 10.0 mi SE 3.5 mph - N/A   Scattered Clouds
5:53 AM 57.2 °F - 53.6 °F 88% 29.92 in 10.0 mi Calm Calm - N/A   Scattered Clouds
6:14 AM 57.2 °F - 53.6 °F 88% 29.92 in 10.0 mi Calm Calm - N/A   Scattered Clouds
6:33 AM 59.0 °F - 53.6 °F 82% 29.92 in 10.0 mi Calm Calm - N/A   Scattered Clouds
6:53 AM 60.8 °F - 53.6 °F 77% 29.91 in 10.0 mi SE 3.5 mph - N/A   Clear
7:13 AM 60.8 °F - 53.6 °F 77% 29.91 in 10.0 mi SSE 4.6 mph - N/A   Clear
7:33 AM 62.6 °F - 55.4 °F 77% 29.91 in 10.0 mi SSE 3.5 mph - N/A   Clear
7:54 AM 64.4 °F - 53.6 °F 68% 29.91 in 10.0 mi SSE 6.9 mph - N/A   Clear
8:13 AM 66.2 °F - 55.4 °F 68% 29.91 in 10.0 mi SSE 6.9 mph - N/A   Clear
8:33 AM 69.8 °F - 55.4 °F 60% 29.90 in 10.0 mi South 8.1 mph - N/A   Clear
8:54 AM 71.6 °F - 57.2 °F 60% 29.90 in 10.0 mi South 8.1 mph - N/A   Clear
9:13 AM 71.6 °F - 57.2 °F 60% 29.90 in 10.0 mi South 8.1 mph - N/A   Clear
9:33 AM 73.4 °F - 57.2 °F 57% 29.90 in 10.0 mi South 8.1 mph - N/A   Clear
9:54 AM 75.2 °F - 57.2 °F 53% 29.88 in 10.0 mi South 8.1 mph - N/A   Clear
10:13 AM 75.2 °F - 59.0 °F 57% 29.88 in 10.0 mi South 9.2 mph - N/A   Clear
10:33 AM 78.8 °F - 59.0 °F 51% 29.88 in 10.0 mi South 9.2 mph - N/A   Clear
10:54 AM 80.6 °F 80.8 °F 57.2 °F 45% 29.88 in 10.0 mi South 11.5 mph - N/A   Clear
11:13 AM 80.6 °F 81.1 °F 59.0 °F 48% 29.87 in 10.0 mi South 10.4 mph - N/A   Clear
11:33 AM 82.4 °F 82.5 °F 59.0 °F 45% 29.86 in 10.0 mi South 10.4 mph - N/A   Clear
11:54 AM 82.4 °F 82.0 °F 57.2 °F 42% 29.87 in 10.0 mi South 10.4 mph 17.3 mph N/A   Clear
12:13 PM 84.2 °F 83.5 °F 57.2 °F 40% 29.86 in 10.0 mi South 11.5 mph - N/A   Clear
12:33 PM 84.2 °F 83.0 °F 55.4 °F 37% 29.86 in 10.0 mi South 15.0 mph 21.9 mph N/A   Clear
12:54 PM 84.2 °F 83.0 °F 55.4 °F 37% 29.85 in 10.0 mi South 15.0 mph - N/A   Clear
1:13 PM 84.2 °F 82.8 °F 53.6 °F 35% 29.85 in 10.0 mi South 17.3 mph - N/A   Clear
1:33 PM 86.0 °F 84.2 °F 53.6 °F 33% 29.85 in 10.0 mi South 12.7 mph 25.3 mph N/A   Clear
1:54 PM 87.8 °F 85.7 °F 53.6 °F 31% 29.84 in 10.0 mi SSW 13.8 mph 21.9 mph N/A   Clear
2:13 PM 84.2 °F 82.8 °F 53.6 °F 35% 29.84 in 10.0 mi South 15.0 mph 21.9 mph N/A   Clear
2:34 PM 84.2 °F 82.8 °F 53.6 °F 35% 29.84 in 10.0 mi South 15.0 mph 20.7 mph N/A   Clear
2:53 PM 86.0 °F 84.2 °F 53.6 °F 33% 29.84 in 10.0 mi South 15.0 mph 24.2 mph N/A   Clear
3:13 PM 87.8 °F 85.7 °F 53.6 °F 31% 29.83 in 10.0 mi South 16.1 mph 23.0 mph N/A   Clear
3:33 PM 86.0 °F 84.2 °F 53.6 °F 33% 29.83 in 10.0 mi South 15.0 mph 21.9 mph N/A   Clear
3:53 PM 86.0 °F 84.2 °F 53.6 °F 33% 29.83 in 10.0 mi South 16.1 mph - N/A   Clear
4:13 PM 84.2 °F 83.0 °F 55.4 °F 37% 29.83 in 10.0 mi South 15.0 mph 19.6 mph N/A   Clear
4:33 PM 84.2 °F 83.0 °F 55.4 °F 37% 29.83 in 10.0 mi South 11.5 mph 18.4 mph N/A   Clear
4:53 PM 84.2 °F 83.0 °F 55.4 °F 37% 29.83 in 10.0 mi South 8.1 mph 20.7 mph N/A   Clear
5:13 PM 84.2 °F 83.0 °F 55.4 °F 37% 29.83 in 10.0 mi South 11.5 mph - N/A   Clear
5:34 PM 84.2 °F 83.0 °F 55.4 °F 37% 29.82 in 10.0 mi South 10.4 mph - N/A   Clear
5:53 PM 82.4 °F 81.7 °F 55.4 °F 39% 29.82 in 10.0 mi South 8.1 mph - N/A   Clear
6:13 PM 82.4 °F 81.7 °F 55.4 °F 39% 29.82 in 10.0 mi SSE 9.2 mph - N/A   Clear
6:34 PM 82.4 °F 82.0 °F 57.2 °F 42% 29.81 in 10.0 mi SSE 8.1 mph - N/A   Clear
6:53 PM 84.2 °F 83.5 °F 57.2 °F 40% 29.81 in 10.0 mi SSE 9.2 mph - N/A   Clear
7:13 PM 82.4 °F 82.0 °F 57.2 °F 42% 29.80 in 10.0 mi SSE 10.4 mph 16.1 mph N/A   Clear
7:34 PM 80.6 °F 80.8 °F 57.2 °F 45% 29.80 in 10.0 mi SSE 9.2 mph - N/A   Clear
7:53 PM 80.6 °F 80.8 °F 57.2 °F 45% 29.80 in 10.0 mi SSE 9.2 mph - N/A   Clear
8:13 PM 80.6 °F 80.5 °F 55.4 °F 42% 29.80 in 10.0 mi SSE 8.1 mph - N/A   Clear
8:34 PM 80.6 °F 80.5 °F 55.4 °F 42% 29.81 in 10.0 mi SSE 8.1 mph - N/A   Clear
8:53 PM 78.8 °F - 55.4 °F 44% 29.81 in 10.0 mi SSE 6.9 mph - N/A   Clear
9:13 PM 78.8 °F - 55.4 °F 44% 29.80 in 10.0 mi SSE 9.2 mph - N/A   Clear
9:34 PM 77.0 °F - 55.4 °F 47% 29.81 in 10.0 mi SSE 8.1 mph - N/A   Clear
9:53 PM 75.2 °F - 55.4 °F 50% 29.82 in 10.0 mi SSE 8.1 mph - N/A   Clear
10:13 PM 75.2 °F - 55.4 °F 50% 29.82 in 10.0 mi SSE 8.1 mph - N/A   Clear
10:34 PM 75.2 °F - 55.4 °F 50% 29.82 in 10.0 mi SSE 8.1 mph - N/A   Clear
10:53 PM 73.4 °F - 55.4 °F 53% 29.82 in 10.0 mi SSE 8.1 mph - N/A   Clear
11:13 PM 73.4 °F - 55.4 °F 53% 29.82 in 10.0 mi SSE 6.9 mph - N/A   Clear
11:34 PM 73.4 °F - 55.4 °F 53% 29.82 in 10.0 mi SSE 8.1 mph - N/A   Clear
11:53 PM 73.4 °F - 55.4 °F 53% 29.82 in 10.0 mi South 8.1 mph - N/A   Clear